Location: Unspecified
(0.0000°N, 0.0000°E)
Time: 08:50:32
(UTC+00:00)

ISS - Visible Passes

Search period start: 29 August 2016 00:00
Search period end: 08 September 2016 00:00
Orbit: 402 x 406 km, 51.6° (Epoch: 29 August)

Date Brightness Start Highest point End Pass type
(mag) Time Alt. Az. Time Alt. Az. Time Alt. Az.
29 Aug -3.1 05:14:15 15° SW 05:16:44 51° NW 05:19:55 10° NNE visible
30 Aug -2.1 04:25:00 41° E 04:25:00 41° E 04:27:34 10° NE visible
31 Aug -1.3 05:08:23 14° NW 05:08:23 14° NW 05:10:02 10° NNW visible
